Tracking 35331 objects as of 14-Sep-2026
HD Live streaming from Space Station
objects crossing your sky now

COSMOS 1813 DEB


COSMOS 1813 DEB is no longer on orbit


NORAD ID: 18068
Int'l Code: 1987-004FX
Launch date: January 15, 1987
Source: Commonwealth of Independent States (former USSR) (CIS)
Launch site: PLESETSK MISSILE AND SPACE COMPLEX (PKMTR)
Decay date: 1988-02-25

Note: This is SATELLITE DEBRIS
Your satellite tracking list
Your tracking list is empty




NASA's NSSDC Master Catalog

Two Line Element Set (TLE):
1 18068U 87004 FX 88055.06379655  .03544889 +86000-5 +10735-2 0  9997
2 18068 072.7794 047.3695 0017568 330.3745 035.7798 16.26287554056407
Source of the keplerian elements: AFSPC